Weather History for KRUG - September, 2013

Change the Weather History Date:

Friday, September 13, 2013

  Actual Average Record
Temperature  
Mean Temperature 65 °F -  
Max Temperature 80 °F 70 °F 90 °F (1959)
Min Temperature 50 °F 45 °F 26 °F (1970)
Growing Degree Days 15 (Base 50)    
Moisture  
Dew Point 51 °F    
Average Humidity 67    
Maximum Humidity 94    
Minimum Humidity 34    
Precipitation  
Precipitation 0.00 in - - ()
Sea Level Pressure  
Sea Level Pressure 30.04 in    
Wind  
Wind Speed 9 mph (South)    
Max Wind Speed 21 mph    
Max Gust Speed 26 mph    
Visibility 10 miles    
Events      
Averages and records for this station are not official NWS values.
T = Trace of Precipitation, MM = Missing Value Source: NWS Daily Summary

Daily Weather History Graph

Daily Weather History Graph

Search for Another Location

Airport or City:

Trip Planner

Search our weather history database for the weather conditions in past years. The results will help you decide how hot, cold, wet, or windy it might be!

Date:

Astronomy

Sep. 13, 2013 Rise Set
Actual Time 7:14 AM CDT 7:56 PM CDT
Civil Twilight 6:43 AM CDT 8:27 PM CDT
Nautical Twilight 6:05 AM CDT 9:05 PM CDT
Astronomical Twilight 5:25 AM CDT 9:44 PM CDT
Moon 4:07 PM CDT (9/13) 12:24 AM CDT (9/13)
Length of Visible Light 13h 44m
Length of Day
12h 41m
First Quarter, 61% of the Moon is Illuminated
Sep 13
First Quarter
Sep 19
Full
Sep 26
Last Quarter
Oct 4
New
Oct 11
First Quarter

Hourly Weather History & Observations

Time (CDT) Temp. Heat Index Dew Point Humidity Pressure Visibility Wind Dir Wind Speed Gust Speed Precip Events Conditions
12:15 AM 53.6 °F - 50.0 °F 88% 30.22 in 10.0 mi South 8.1 mph - N/A   Clear
12:35 AM 53.6 °F - 48.2 °F 82% 30.21 in 10.0 mi South 8.1 mph - N/A   Clear
12:55 AM 53.6 °F - 48.2 °F 82% 30.21 in 10.0 mi South 6.9 mph - N/A   Clear
1:15 AM 53.6 °F - 48.2 °F 82% 30.21 in 10.0 mi South 6.9 mph - N/A   Clear
1:35 AM 53.6 °F - 48.2 °F 82% 30.20 in 10.0 mi SSE 6.9 mph - N/A   Clear
1:55 AM 53.6 °F - 48.2 °F 82% 30.20 in 10.0 mi South 8.1 mph - N/A   Clear
2:15 AM 53.6 °F - 48.2 °F 82% 30.20 in 10.0 mi South 8.1 mph - N/A   Clear
2:35 AM 51.8 °F - 48.2 °F 88% 30.20 in 10.0 mi SSE 8.1 mph - N/A   Clear
2:55 AM 51.8 °F - 46.4 °F 82% 30.20 in 10.0 mi South 8.1 mph - N/A   Clear
3:15 AM 51.8 °F - 46.4 °F 82% 30.19 in 10.0 mi SSE 6.9 mph - N/A   Clear
3:35 AM 50.0 °F - 46.4 °F 87% 30.19 in 10.0 mi South 8.1 mph - N/A   Clear
3:55 AM 50.0 °F - 46.4 °F 87% 30.18 in 10.0 mi South 8.1 mph - N/A   Clear
4:15 AM 50.0 °F - 46.4 °F 87% 30.18 in 10.0 mi South 8.1 mph - N/A   Clear
4:35 AM 50.0 °F - 46.4 °F 87% 30.18 in 10.0 mi South 8.1 mph - N/A   Clear
4:55 AM 50.0 °F - 46.4 °F 87% 30.18 in 10.0 mi South 8.1 mph - N/A   Clear
5:15 AM 50.0 °F - 46.4 °F 87% 30.18 in 10.0 mi SSE 8.1 mph - N/A   Clear
5:35 AM 50.0 °F - 48.2 °F 94% 30.17 in 10.0 mi South 8.1 mph - N/A   Clear
5:55 AM 50.0 °F - 48.2 °F 94% 30.17 in 10.0 mi South 8.1 mph - N/A   Clear
6:15 AM 50.0 °F - 48.2 °F 94% 30.16 in 10.0 mi SSE 6.9 mph - N/A   Clear
6:35 AM 50.0 °F - 48.2 °F 94% 30.15 in 10.0 mi SSE 6.9 mph - N/A   Clear
6:55 AM 50.0 °F - 48.2 °F 94% 30.15 in 10.0 mi South 6.9 mph - N/A   Clear
7:15 AM 50.0 °F - 48.2 °F 94% 30.14 in 10.0 mi South 8.1 mph - N/A   Clear
7:35 AM 50.0 °F - 48.2 °F 94% 30.14 in 10.0 mi South 8.1 mph - N/A   Clear
7:55 AM 51.8 °F - 48.2 °F 88% 30.13 in 10.0 mi South 8.1 mph - N/A   Clear
8:15 AM 53.6 °F - 50.0 °F 88% 30.12 in 10.0 mi South 8.1 mph - N/A   Clear
8:35 AM 55.4 °F - 50.0 °F 82% 30.12 in 10.0 mi South 9.2 mph - N/A   Clear
8:55 AM 55.4 °F - 50.0 °F 82% 30.11 in 10.0 mi South 9.2 mph - N/A   Clear
9:15 AM 57.2 °F - 51.8 °F 82% 30.11 in 10.0 mi South 10.4 mph - N/A   Clear
9:35 AM 59.0 °F - 51.8 °F 77% 30.10 in 10.0 mi South 9.2 mph - N/A   Clear
9:55 AM 59.0 °F - 51.8 °F 77% 30.10 in 10.0 mi South 11.5 mph 16.1 mph N/A   Clear
10:15 AM 62.6 °F - 53.6 °F 72% 30.10 in 10.0 mi SSW 11.5 mph 16.1 mph N/A   Clear
10:35 AM 64.4 °F - 53.6 °F 68% 30.09 in 10.0 mi South 12.7 mph 17.3 mph N/A   Clear
10:55 AM 66.2 °F - 53.6 °F 64% 30.09 in 10.0 mi South 10.4 mph - N/A   Clear
11:15 AM 66.2 °F - 53.6 °F 64% 30.08 in 10.0 mi South 12.7 mph 17.3 mph N/A   Clear
11:35 AM 68.0 °F - 53.6 °F 60% 30.07 in 10.0 mi South 9.2 mph - N/A   Clear
11:55 AM 69.8 °F - 53.6 °F 56% 30.06 in 10.0 mi SSW 9.2 mph - N/A   Clear
12:15 PM 71.6 °F - 53.6 °F 53% 30.05 in 10.0 mi South 9.2 mph 17.3 mph N/A   Clear
12:35 PM 73.4 °F - 51.8 °F 47% 30.03 in 10.0 mi South 11.5 mph 18.4 mph N/A   Clear
12:55 PM 73.4 °F - 53.6 °F 50% 30.02 in 10.0 mi SSE 12.7 mph 19.6 mph N/A   Clear
1:15 PM 75.2 °F - 53.6 °F 47% 30.01 in 10.0 mi South 15.0 mph 18.4 mph N/A   Clear
1:35 PM 75.2 °F - 51.8 °F 44% 30.00 in 10.0 mi South 16.1 mph 19.6 mph N/A   Clear
1:55 PM 77.0 °F - 51.8 °F 41% 29.99 in 10.0 mi South 12.7 mph 21.9 mph N/A   Clear
2:15 PM 77.0 °F - 51.8 °F 41% 29.98 in 10.0 mi South 13.8 mph 24.2 mph N/A   Clear
2:35 PM 78.8 °F - 50.0 °F 36% 29.97 in 10.0 mi South 13.8 mph 19.6 mph N/A   Clear
2:55 PM 78.8 °F - 50.0 °F 36% 29.97 in 10.0 mi South 16.1 mph 23.0 mph N/A   Clear
3:15 PM 80.6 °F - 50.0 °F 34% 29.96 in 10.0 mi South 15.0 mph 23.0 mph N/A   Clear
3:35 PM 80.6 °F - 50.0 °F 34% 29.95 in 10.0 mi South 15.0 mph 24.2 mph N/A   Clear
3:55 PM 80.6 °F - 50.0 °F 34% 29.94 in 10.0 mi South 15.0 mph 21.9 mph N/A   Clear
4:15 PM 80.6 °F - 51.8 °F 37% 29.93 in 10.0 mi SSW 20.7 mph 24.2 mph N/A   Clear
4:35 PM 80.6 °F 80.3 °F 53.6 °F 39% 29.92 in 10.0 mi SSW 17.3 mph 21.9 mph N/A   Clear
4:55 PM 78.8 °F - 53.6 °F 42% 29.92 in 10.0 mi SSW 16.1 mph 26.5 mph N/A   Clear
5:15 PM 80.6 °F 80.5 °F 55.4 °F 42% 29.91 in 10.0 mi SW 11.5 mph 20.7 mph N/A   Clear
5:35 PM 80.6 °F 80.5 °F 55.4 °F 42% 29.91 in 10.0 mi SSW 16.1 mph 19.6 mph N/A   Clear
5:55 PM 78.8 °F - 55.4 °F 44% 29.90 in 10.0 mi SSW 10.4 mph 20.7 mph N/A   Clear
6:15 PM 78.8 °F - 55.4 °F 44% 29.89 in 10.0 mi South 11.5 mph 17.3 mph N/A   Clear
6:35 PM 77.0 °F - 55.4 °F 47% 29.89 in 10.0 mi South 9.2 mph 16.1 mph N/A   Clear
6:55 PM 77.0 °F - 55.4 °F 47% 29.88 in 10.0 mi South 8.1 mph - N/A   Clear
7:15 PM 75.2 °F - 55.4 °F 50% 29.88 in 10.0 mi South 8.1 mph - N/A   Clear
7:35 PM 73.4 °F - 55.4 °F 53% 29.88 in 10.0 mi South 9.2 mph - N/A   Clear
7:55 PM 71.6 °F - 55.4 °F 57% 29.87 in 10.0 mi South 9.2 mph - N/A   Clear
8:15 PM 68.0 °F - 55.4 °F 64% 29.87 in 10.0 mi South 8.1 mph - N/A   Clear
8:35 PM 68.0 °F - 55.4 °F 64% 29.87 in 10.0 mi South 8.1 mph - N/A   Clear
8:55 PM 66.2 °F - 53.6 °F 64% 29.87 in 10.0 mi South 8.1 mph - N/A   Clear
9:15 PM 66.2 °F - 53.6 °F 64% 29.87 in 10.0 mi South 8.1 mph - N/A   Clear
9:35 PM 64.4 °F - 53.6 °F 68% 29.87 in 10.0 mi South 9.2 mph - N/A   Clear
9:55 PM 64.4 °F - 53.6 °F 68% 29.87 in 10.0 mi South 10.4 mph - N/A   Clear
10:15 PM 64.4 °F - 53.6 °F 68% 29.87 in 10.0 mi South 9.2 mph - N/A   Clear
10:35 PM 64.4 °F - 53.6 °F 68% 29.87 in 10.0 mi South 9.2 mph - N/A   Clear
10:55 PM 62.6 °F - 51.8 °F 68% 29.86 in 10.0 mi South 9.2 mph - N/A   Clear
11:15 PM 62.6 °F - 51.8 °F 68% 29.86 in 10.0 mi South 9.2 mph - N/A   Clear
11:35 PM 60.8 °F - 51.8 °F 72% 29.86 in 10.0 mi South 6.9 mph - N/A   Clear
11:55 PM 60.8 °F - 51.8 °F 72% 29.85 in 10.0 mi South 8.1 mph - N/A   Clear